| time (UTC) | temp C | wind direction | speed KPH | gust KPH | rain 1hr cm | rain 24hr cm | rain mn cm | humidity % | barometer mb |
| 20260510194256 | 18 | 306 | 11.3 | 14.5 | 0.00 | 0.00 | 0.00 | 58 | 1010.6 |
| 20260510193756 | 18 | 304 | 14.5 | 20.9 | 0.00 | 0.00 | 0.00 | 57 | 1010.6 |
| 20260510193256 | 18 | 299 | 9.7 | 12.9 | 0.00 | 0.00 | 0.00 | 59 | 1010.6 |
| 20260510192756 | 18 | 296 | 11.3 | 17.7 | 0.00 | 0.00 | 0.00 | 58 | 1010.6 |
| 20260510192257 | 18 | 310 | 12.9 | 17.7 | 0.00 | 0.00 | 0.00 | 58 | 1010.6 |
| 20260510191756 | 19 | 276 | 19.3 | 25.7 | 0.00 | 0.00 | 0.00 | 56 | 1010.6 |
| 20260510191256 | 19 | 310 | 16.1 | 22.5 | 0.00 | 0.00 | 0.00 | 55 | 1010.4 |
| 20260510190759 | 18 | 284 | 14.5 | 20.9 | 0.00 | 0.00 | 0.00 | 56 | 1010.4 |
| 20260510190256 | 19 | 260 | 8.0 | 12.9 | 0.00 | 0.00 | 0.00 | 58 | 1010.4 |
| 20260510185757 | 18 | 273 | 4.8 | 9.7 | 0.00 | 0.00 | 0.00 | 60 | 1010.2 |
| 20260510185256 | 18 | 314 | 6.4 | 9.7 | 0.00 | 0.00 | 0.00 | 58 | 1010.6 |
| 20260510184756 | 18 | 289 | 12.9 | 19.3 | 0.00 | 0.00 | 0.00 | 57 | 1010.3 |
| 20260510184256 | 18 | 282 | 3.2 | 9.7 | 0.00 | 0.00 | 0.00 | 64 | 1010.0 |
| 20260510183756 | 18 | 309 | 8.0 | 14.5 | 0.00 | 0.00 | 0.00 | 63 | 1010.5 |
| 20260510183256 | 18 | 304 | 8.0 | 16.1 | 0.00 | 0.00 | 0.00 | 61 | 1010.3 |
| 20260510182756 | 17 | 319 | 6.4 | 9.7 | 0.00 | 0.00 | 0.00 | 68 | 1010.7 |
| 20260510182256 | 17 | 291 | 3.2 | 4.8 | 0.00 | 0.00 | 0.00 | 69 | 1010.6 |
| 20260510181757 | 17 | 214 | 3.2 | 6.4 | 0.00 | 0.00 | 0.00 | 70 | 1010.6 |
| 20260510181256 | 17 | 303 | 4.8 | 9.7 | 0.00 | 0.00 | 0.00 | 69 | 1010.7 |
| 20260510180756 | 17 | 12 | 3.2 | 11.3 | 0.00 | 0.00 | 0.00 | 69 | 1010.6 |
| 20260510180257 | 17 | 273 | 1.6 | 4.8 | 0.00 | 0.00 | 0.00 | 71 | 1010.7 |
| 20260510175758 | 17 | 303 | 12.9 | 16.1 | 0.00 | 0.00 | 0.00 | 69 | 1010.9 |
| 20260510175257 | 18 | 305 | 3.2 | 4.8 | 0.00 | 0.00 | 0.00 | 67 | 1010.7 |
| 20260510174756 | 18 | 276 | 12.9 | 17.7 | 0.00 | 0.00 | 0.00 | 61 | 1010.4 |
| 20260510174256 | 18 | 319 | 6.4 | 8.0 | 0.00 | 0.00 | 0.00 | 63 | 1010.6 |
| 20260510173756 | 18 | 288 | 11.3 | 14.5 | 0.00 | 0.00 | 0.00 | 63 | 1010.6 |
| 20260510173257 | 18 | 258 | 11.3 | 17.7 | 0.00 | 0.00 | 0.00 | 62 | 1010.7 |
| 20260510172757 | 18 | 268 | 9.7 | 14.5 | 0.00 | 0.00 | 0.00 | 60 | 1010.4 |
| 20260510172256 | 18 | 257 | 14.5 | 19.3 | 0.00 | 0.00 | 0.00 | 60 | 1010.3 |
| 20260510171756 | 18 | 250 | 14.5 | 17.7 | 0.00 | 0.00 | 0.00 | 60 | 1010.2 |
| 20260510171256 | 18 | 302 | 3.2 | 9.7 | 0.00 | 0.00 | 0.00 | 62 | 1010.6 |
| 20260510170756 | 18 | 281 | 6.4 | 11.3 | 0.00 | 0.00 | 0.00 | 59 | 1010.6 |
| 20260510170256 | 18 | 263 | 3.2 | 12.9 | 0.00 | 0.00 | 0.00 | 61 | 1010.7 |
| 20260510165756 | 18 | 294 | 9.7 | 14.5 | 0.00 | 0.00 | 0.00 | 61 | 1010.5 |
| 20260510165256 | 18 | 288 | 3.2 | 4.8 | 0.00 | 0.00 | 0.00 | 61 | 1010.2 |
| 20260510164756 | 17 | 284 | 6.4 | 9.7 | 0.00 | 0.00 | 0.00 | 62 | 1010.3 |
| 20260510164256 | 17 | 269 | 6.4 | 12.9 | 0.00 | 0.00 | 0.00 | 63 | 1010.8 |
| 20260510163756 | 17 | 274 | 6.4 | 14.5 | 0.00 | 0.00 | 0.00 | 61 | 1010.7 |
| 20260510163256 | 17 | 286 | 8.0 | 12.9 | 0.00 | 0.00 | 0.00 | 62 | 1010.7 |
| 20260510162756 | 17 | 318 | 4.8 | 6.4 | 0.00 | 0.00 | 0.00 | 61 | 1010.4 |
| 20260510162256 | 17 | 296 | 6.4 | 9.7 | 0.00 | 0.00 | 0.00 | 64 | 1010.4 |
| 20260510161758 | 17 | 281 | 6.4 | 9.7 | 0.00 | 0.00 | 0.00 | 64 | 1010.8 |
| 20260510161256 | 17 | 259 | 8.0 | 9.7 | 0.00 | 0.00 | 0.00 | 63 | 1010.8 |
| 20260510160757 | 17 | 326 | 4.8 | 9.7 | 0.00 | 0.00 | 0.00 | 63 | 1010.6 |
| 20260510160258 | 17 | 275 | 4.8 | 9.7 | 0.00 | 0.00 | 0.00 | 67 | 1010.8 |
| 20260510155756 | 17 | 278 | 1.6 | 4.8 | 0.00 | 0.00 | 0.00 | 66 | 1010.8 |
| 20260510155256 | 17 | 265 | 4.8 | 8.0 | 0.00 | 0.00 | 0.00 | 67 | 1010.8 |
| 20260510154756 | 16 | 271 | 4.8 | 9.7 | 0.00 | 0.00 | 0.00 | 68 | 1010.8 |
| 20260510154256 | 16 | 310 | 4.8 | 9.7 | 0.00 | 0.00 | 0.00 | 67 | 1011.0 |
| 20260510153756 | 16 | 286 | 4.8 | 6.4 | 0.00 | 0.00 | 0.00 | 70 | 1010.9 |
| 20260510153256 | 16 | 274 | 4.8 | 8.0 | 0.00 | 0.00 | 0.00 | 68 | 1010.6 |
| 20260510152756 | 16 | 271 | 8.0 | 12.9 | 0.00 | 0.00 | 0.00 | 68 | 1010.6 |
| 20260510152257 | 16 | 274 | 6.4 | 14.5 | 0.00 | 0.00 | 0.00 | 69 | 1010.4 |
| 20260510151756 | 16 | 280 | 3.2 | 6.4 | 0.00 | 0.00 | 0.00 | 70 | 1010.4 |
| 20260510151256 | 15 | 39 | 3.2 | 4.8 | 0.00 | 0.00 | 0.00 | 73 | 1010.5 |
| 20260510150756 | 15 | 283 | 1.6 | 3.2 | 0.00 | 0.00 | 0.00 | 74 | 1010.6 |
| 20260510150257 | 15 | 284 | 3.2 | 4.8 | 0.00 | 0.00 | 0.00 | 75 | 1010.8 |
| 20260510145758 | 15 | 271 | 4.8 | 8.0 | 0.00 | 0.00 | 0.00 | 77 | 1010.6 |
| 20260510145256 | 15 | 292 | 4.8 | 6.4 | 0.00 | 0.00 | 0.00 | 76 | 1010.6 |
| 20260510144756 | 15 | 266 | 6.4 | 8.0 | 0.00 | 0.00 | 0.00 | 77 | 1011.1 |
| 20260510144257 | 15 | 124 | 1.6 | 3.2 | 0.00 | 0.00 | 0.00 | 77 | 1010.9 |
| 20260510143756 | 14 | 282 | 1.6 | 3.2 | 0.00 | 0.00 | 0.00 | 79 | 1010.8 |
| 20260510143256 | 14 | 261 | 6.4 | 9.7 | 0.00 | 0.00 | 0.00 | 79 | 1010.8 |
| 20260510142757 | 14 | 277 | 3.2 | 6.4 | 0.00 | 0.00 | 0.00 | 82 | 1010.8 |
| 20260510142257 | 13 | 289 | 3.2 | 3.2 | 0.00 | 0.00 | 0.00 | 82 | 1010.8 |
| 20260510141756 | 13 | 301 | 3.2 | 3.2 | 0.00 | 0.00 | 0.00 | 82 | 1010.9 |
| 20260510141256 | 13 | 294 | 3.2 | 4.8 | 0.00 | 0.00 | 0.00 | 82 | 1010.8 |
| 20260510140756 | 13 | 269 | 3.2 | 4.8 | 0.00 | 0.00 | 0.00 | 83 | 1010.9 |
| 20260510140300 | 13 | 263 | 4.8 | 6.4 | 0.00 | 0.00 | 0.00 | 83 | 1011.0 |
| 20260510135757 | 13 | 303 | 4.8 | 9.7 | 0.00 | 0.00 | 0.00 | 83 | 1011.1 |
| 20260510135257 | 13 | 261 | 3.2 | 6.4 | 0.00 | 0.00 | 0.00 | 84 | 1011.1 |
| 20260510134756 | 13 | 262 | 1.6 | 1.6 | 0.00 | 0.00 | 0.00 | 85 | 1011.0 |
| 20260510134257 | 12 | 217 | 0.0 | 1.6 | 0.00 | 0.00 | 0.00 | 87 | 1011.0 |
| 20260510133758 | 12 | 77 | 1.6 | 4.8 | 0.00 | 0.00 | 0.00 | 85 | 1011.0 |
| 20260510133256 | 13 | 278 | 4.8 | 8.0 | 0.00 | 0.00 | 0.00 | 84 | 1010.9 |
| 20260510132756 | 12 | 289 | 4.8 | 8.0 | 0.00 | 0.00 | 0.00 | 84 | 1010.5 |
| 20260510132257 | 12 | 356 | 1.6 | 3.2 | 0.00 | 0.00 | 0.00 | 89 | 1010.5 |
| 20260510131757 | 11 | 320 | 1.6 | 1.6 | 0.00 | 0.00 | 0.00 | 90 | 1010.5 |
| 20260510131257 | 11 | 322 | 1.6 | 3.2 | 0.00 | 0.00 | 0.00 | 93 | 1010.6 |
| 20260510130756 | 10 | 309 | 0.0 | 1.6 | 0.00 | 0.00 | 0.00 | 95 | 1010.8 |
| 20260510130256 | 10 | 0 | 0.0 | 0.0 | 0.00 | 0.00 | 0.00 | 95 | 1011.0 |
| 20260510125756 | 10 | 250 | 3.2 | 3.2 | 0.00 | 0.00 | 0.00 | 94 | 1011.1 |
| 20260510125256 | 9 | 236 | 0.0 | 1.6 | 0.00 | 0.00 | 0.00 | 95 | 1011.1 |
| 20260510124756 | 9 | 276 | 1.6 | 1.6 | 0.00 | 0.00 | 0.00 | 96 | 1011.2 |
| 20260510124257 | 9 | 246 | 1.6 | 1.6 | 0.00 | 0.00 | 0.00 | 96 | 1011.2 |
| 20260510123756 | 9 | 248 | 1.6 | 1.6 | 0.00 | 0.00 | 0.00 | 97 | 1011.2 |
| 20260510123256 | 8 | 304 | 0.0 | 1.6 | 0.00 | 0.00 | 0.00 | 97 | 1011.2 |
| 20260510122756 | 8 | 295 | 1.6 | 1.6 | 0.00 | 0.00 | 0.00 | 98 | 1011.3 |
| 20260510122257 | 8 | 0 | 0.0 | 0.0 | 0.00 | 0.00 | 0.00 | 98 | 1011.3 |
| 20260510121756 | 8 | 296 | 0.0 | 1.6 | 0.00 | 0.00 | 0.00 | 98 | 1011.4 |
| 20260510121257 | 8 | 265 | 3.2 | 3.2 | 0.00 | 0.00 | 0.00 | 98 | 1011.4 |
| 20260510120757 | 8 | 293 | 1.6 | 3.2 | 0.00 | 0.00 | 0.00 | 99 | 1011.2 |
| 20260510120258 | 8 | 307 | 1.6 | 3.2 | 0.00 | 0.00 | 0.00 | 99 | 1011.3 |
| 20260510115756 | 8 | 0 | 0.0 | 0.0 | 0.00 | 0.00 | 0.00 | 99 | 1011.3 |
| 20260510115256 | 8 | 234 | 1.6 | 1.6 | 0.00 | 0.00 | 0.00 | 99 | 1011.3 |
| 20260510114756 | 7 | 62 | 1.6 | 1.6 | 0.00 | 0.00 | 0.00 | 99 | 1011.3 |
| 20260510114256 | 7 | 0 | 0.0 | 0.0 | 0.00 | 0.00 | 0.00 | 99 | 1011.4 |
| 20260510113756 | 7 | 0 | 0.0 | 0.0 | 0.00 | 0.00 | 0.00 | 99 | 1011.5 |
| 20260510113256 | 7 | 45 | 0.0 | 1.6 | 0.00 | 0.00 | 0.00 | 99 | 1011.6 |
| 20260510112757 | 7 | 273 | 0.0 | 1.6 | 0.00 | 0.00 | 0.00 | 99 | 1011.7 |
| 20260510112256 | 7 | 271 | 1.6 | 1.6 | 0.00 | 0.00 | 0.00 | 99 | 1011.5 |
| 20260510111756 | 7 | 0 | 0.0 | 0.0 | 0.00 | 0.00 | 0.00 | 99 | 1011.4 |
| 20260510111257 | 7 | 0 | 0.0 | 0.0 | 0.00 | 0.00 | 0.00 | 99 | 1011.5 |
| 20260510110756 | 7 | 0 | 0.0 | 0.0 | 0.00 | 0.00 | 0.00 | 99 | 1011.3 |
| 20260510110256 | 7 | 0 | 0.0 | 0.0 | 0.00 | 0.00 | 0.00 | 99 | 1011.1 |
| 20260510105756 | 7 | 253 | 0.0 | 0.0 | 0.00 | 0.00 | 0.00 | 99 | 1011.0 |
| 20260510105256 | 7 | 0 | 0.0 | 0.0 | 0.00 | 0.00 | 0.00 | 99 | 1010.9 |
| 20260510104757 | 7 | 0 | 0.0 | 0.0 | 0.00 | 0.00 | 0.00 | 99 | 1010.9 |
| 20260510104256 | 7 | 0 | 0.0 | 0.0 | 0.00 | 0.00 | 0.00 | 99 | 1010.9 |
| 20260510103757 | 7 | 326 | 0.0 | 0.0 | 0.00 | 0.00 | 0.00 | 99 | 1010.9 |
| 20260510103256 | 7 | 337 | 0.0 | 0.0 | 0.00 | 0.00 | 0.00 | 99 | 1010.8 |
| 20260510102758 | 7 | 322 | 0.0 | 1.6 | 0.00 | 0.00 | 0.00 | 99 | 1010.6 |
| 20260510102256 | 7 | 38 | 0.0 | 0.0 | 0.00 | 0.00 | 0.00 | 99 | 1010.5 |
| 20260510101757 | 7 | 0 | 0.0 | 0.0 | 0.00 | 0.00 | 0.00 | 99 | 1010.5 |
| 20260510101256 | 7 | 0 | 0.0 | 0.0 | 0.00 | 0.00 | 0.00 | 99 | 1010.3 |
| 20260510100756 | 7 | 0 | 0.0 | 0.0 | 0.00 | 0.00 | 0.00 | 99 | 1010.3 |
| 20260510100256 | 7 | 0 | 0.0 | 0.0 | 0.00 | 0.00 | 0.00 | 99 | 1010.5 |
| 20260510095756 | 7 | 0 | 0.0 | 0.0 | 0.00 | 0.00 | 0.00 | 99 | 1010.5 |
| 20260510095258 | 7 | 357 | 0.0 | 1.6 | 0.00 | 0.00 | 0.00 | 99 | 1010.3 |
| 20260510094756 | 7 | 0 | 0.0 | 0.0 | 0.00 | 0.00 | 0.00 | 99 | 1010.2 |
| 20260510094256 | 7 | 284 | 3.2 | 3.2 | 0.00 | 0.00 | 0.00 | 99 | 1010.2 |
| 20260510093756 | 6 | 0 | 0.0 | 0.0 | 0.00 | 0.00 | 0.00 | 99 | 1010.0 |
| 20260510093257 | 6 | 0 | 0.0 | 0.0 | 0.00 | 0.00 | 0.00 | 99 | 1010.1 |
| 20260510092757 | 7 | 0 | 0.0 | 0.0 | 0.00 | 0.00 | 0.00 | 99 | 1010.3 |
| 20260510092256 | 7 | 0 | 0.0 | 0.0 | 0.00 | 0.00 | 0.00 | 99 | 1010.3 |
| 20260510091757 | 6 | 0 | 0.0 | 0.0 | 0.00 | 0.00 | 0.00 | 99 | 1010.1 |
| 20260510091259 | 6 | 0 | 0.0 | 0.0 | 0.00 | 0.00 | 0.00 | 99 | 1010.3 |
| 20260510090756 | 6 | 0 | 0.0 | 0.0 | 0.00 | 0.00 | 0.00 | 99 | 1010.1 |
| 20260510090256 | 7 | 0 | 0.0 | 0.0 | 0.00 | 0.00 | 0.00 | 99 | 1010.3 |
| 20260510085756 | 7 | 0 | 0.0 | 0.0 | 0.00 | 0.00 | 0.00 | 99 | 1010.5 |
| 20260510085256 | 6 | 0 | 0.0 | 0.0 | 0.00 | 0.00 | 0.00 | 99 | 1010.4 |
| 20260510084757 | 6 | 62 | 1.6 | 1.6 | 0.00 | 0.00 | 0.00 | 99 | 1010.3 |
| 20260510084256 | 6 | 0 | 0.0 | 0.0 | 0.00 | 0.00 | 0.00 | 99 | 1010.6 |
| 20260510083756 | 6 | 0 | 0.0 | 0.0 | 0.00 | 0.00 | 0.00 | 99 | 1010.6 |
| 20260510083256 | 6 | 48 | 0.0 | 0.0 | 0.00 | 0.00 | 0.00 | 99 | 1010.5 |
| 20260510082756 | 6 | 0 | 0.0 | 0.0 | 0.00 | 0.00 | 0.00 | 99 | 1010.5 |
| 20260510082256 | 6 | 0 | 0.0 | 0.0 | 0.00 | 0.00 | 0.00 | 99 | 1010.4 |
| 20260510081756 | 6 | 0 | 0.0 | 0.0 | 0.00 | 0.00 | 0.00 | 99 | 1010.5 |
| 20260510081256 | 6 | 0 | 0.0 | 0.0 | 0.00 | 0.00 | 0.00 | 99 | 1010.7 |
| 20260510080757 | 6 | 0 | 0.0 | 0.0 | 0.00 | 0.00 | 0.00 | 99 | 1010.6 |
| 20260510080256 | 6 | 0 | 0.0 | 0.0 | 0.00 | 0.00 | 0.00 | 99 | 1010.5 |
| 20260510075757 | 6 | 0 | 0.0 | 0.0 | 0.00 | 0.00 | 0.00 | 99 | 1010.5 |
| 20260510075256 | 6 | 0 | 0.0 | 0.0 | 0.00 | 0.00 | 0.00 | 99 | 1010.5 |
| 20260510074756 | 6 | 0 | 0.0 | 0.0 | 0.00 | 0.00 | 0.00 | 99 | 1010.5 |
| 20260510074257 | 6 | 0 | 0.0 | 0.0 | 0.00 | 0.00 | 0.00 | 99 | 1010.5 |
| 20260510073757 | 6 | 0 | 0.0 | 0.0 | 0.00 | 0.00 | 0.00 | 99 | 1010.4 |
| 20260510073256 | 6 | 0 | 0.0 | 0.0 | 0.00 | 0.00 | 0.00 | 99 | 1010.4 |
| 20260510072756 | 6 | 0 | 0.0 | 0.0 | 0.00 | 0.00 | 0.00 | 99 | 1010.4 |
| 20260510072256 | 6 | 0 | 0.0 | 0.0 | 0.00 | 0.00 | 0.00 | 99 | 1010.5 |
| 20260510071756 | 6 | 301 | 0.0 | 0.0 | 0.00 | 0.00 | 0.00 | 99 | 1010.5 |
| 20260510071256 | 6 | 0 | 0.0 | 0.0 | 0.00 | 0.00 | 0.00 | 99 | 1010.4 |
| 20260510070756 | 6 | 0 | 0.0 | 0.0 | 0.00 | 0.00 | 0.00 | 99 | 1010.4 |
| 20260510070256 | 6 | 0 | 0.0 | 0.0 | 0.00 | 0.00 | 0.00 | 99 | 1010.7 |
| 20260510065756 | 6 | 0 | 0.0 | 0.0 | 0.00 | 0.00 | 0.00 | 99 | 1010.7 |
| 20260510065256 | 6 | 230 | 0.0 | 1.6 | 0.00 | 0.00 | 0.00 | 99 | 1010.8 |
| 20260510064756 | 6 | 0 | 0.0 | 0.0 | 0.00 | 0.00 | 0.00 | 99 | 1010.8 |
| 20260510064257 | 6 | 0 | 0.0 | 0.0 | 0.00 | 0.00 | 0.00 | 99 | 1010.9 |
| 20260510063756 | 6 | 0 | 0.0 | 0.0 | 0.00 | 0.00 | 0.00 | 99 | 1011.0 |
| 20260510063256 | 6 | 0 | 0.0 | 0.0 | 0.00 | 0.00 | 0.00 | 99 | 1010.9 |
| 20260510062757 | 6 | 354 | 0.0 | 0.0 | 0.00 | 0.00 | 0.00 | 99 | 1010.7 |
| 20260510062256 | 6 | 0 | 0.0 | 0.0 | 0.00 | 0.00 | 0.00 | 98 | 1010.7 |
| 20260510061757 | 6 | 0 | 0.0 | 0.0 | 0.00 | 0.00 | 0.00 | 98 | 1010.7 |
| 20260510061256 | 6 | 0 | 0.0 | 0.0 | 0.00 | 0.00 | 0.00 | 98 | 1010.7 |
| 20260510060756 | 6 | 0 | 0.0 | 0.0 | 0.00 | 0.00 | 0.00 | 98 | 1010.7 |
| 20260510060256 | 6 | 0 | 0.0 | 0.0 | 0.00 | 0.00 | 0.00 | 98 | 1010.7 |
| 20260510055757 | 6 | 0 | 0.0 | 0.0 | 0.00 | 0.00 | 0.00 | 98 | 1010.8 |
| 20260510055257 | 6 | 0 | 0.0 | 0.0 | 0.00 | 0.00 | 0.00 | 98 | 1010.9 |
| 20260510054756 | 6 | 0 | 0.0 | 0.0 | 0.00 | 0.00 | 0.00 | 98 | 1010.8 |
| 20260510054257 | 6 | 0 | 0.0 | 0.0 | 0.00 | 0.00 | 0.00 | 98 | 1010.7 |
| 20260510053756 | 6 | 0 | 0.0 | 0.0 | 0.00 | 0.00 | 0.00 | 98 | 1010.7 |
| 20260510053256 | 6 | 0 | 0.0 | 0.0 | 0.00 | 0.00 | 0.00 | 98 | 1010.7 |
| 20260510052756 | 6 | 344 | 0.0 | 0.0 | 0.00 | 0.00 | 0.00 | 98 | 1010.8 |
| 20260510052257 | 6 | 0 | 0.0 | 0.0 | 0.00 | 0.00 | 0.00 | 98 | 1010.7 |
| 20260510051757 | 6 | 0 | 0.0 | 0.0 | 0.00 | 0.00 | 0.00 | 98 | 1010.7 |
| 20260510051256 | 6 | 56 | 0.0 | 0.0 | 0.00 | 0.00 | 0.00 | 98 | 1010.9 |
| 20260510050756 | 6 | 0 | 0.0 | 0.0 | 0.00 | 0.00 | 0.00 | 98 | 1011.0 |
| 20260510050256 | 6 | 0 | 0.0 | 0.0 | 0.00 | 0.00 | 0.00 | 98 | 1011.0 |
| 20260510045756 | 6 | 0 | 0.0 | 0.0 | 0.00 | 0.00 | 0.00 | 98 | 1011.0 |
| 20260510045256 | 6 | 0 | 0.0 | 0.0 | 0.00 | 0.00 | 0.00 | 98 | 1011.0 |
| 20260510044756 | 6 | 0 | 0.0 | 0.0 | 0.00 | 0.00 | 0.00 | 98 | 1011.1 |
| 20260510044256 | 6 | 0 | 0.0 | 0.0 | 0.00 | 0.00 | 0.00 | 98 | 1011.1 |
| 20260510043756 | 6 | 0 | 0.0 | 0.0 | 0.00 | 0.00 | 0.00 | 98 | 1011.1 |
| 20260510043256 | 6 | 0 | 0.0 | 0.0 | 0.00 | 0.00 | 0.00 | 98 | 1011.1 |
| 20260510042756 | 6 | 0 | 0.0 | 0.0 | 0.00 | 0.00 | 0.00 | 98 | 1011.3 |
| 20260510042256 | 6 | 0 | 0.0 | 0.0 | 0.00 | 0.00 | 0.00 | 98 | 1011.3 |
| 20260510041756 | 6 | 0 | 0.0 | 0.0 | 0.00 | 0.00 | 0.00 | 98 | 1011.3 |
| 20260510041256 | 6 | 0 | 0.0 | 0.0 | 0.00 | 0.00 | 0.00 | 98 | 1011.3 |
| 20260510040757 | 6 | 0 | 0.0 | 0.0 | 0.00 | 0.00 | 0.00 | 98 | 1011.3 |
| 20260510040258 | 6 | 0 | 0.0 | 0.0 | 0.00 | 0.00 | 0.00 | 98 | 1011.3 |
| 20260510035756 | 6 | 0 | 0.0 | 0.0 | 0.00 | 0.00 | 0.97 | 98 | 1011.2 |
| 20260510035256 | 6 | 0 | 0.0 | 0.0 | 0.00 | 0.00 | 0.97 | 98 | 1011.3 |
| 20260510034756 | 6 | 0 | 0.0 | 0.0 | 0.00 | 0.00 | 0.97 | 98 | 1011.2 |
| 20260510034256 | 6 | 307 | 1.6 | 1.6 | 0.00 | 0.00 | 0.97 | 98 | 1011.3 |
| 20260510033756 | 6 | 333 | 0.0 | 1.6 | 0.00 | 0.00 | 0.97 | 98 | 1011.2 |
| 20260510033256 | 6 | 0 | 0.0 | 0.0 | 0.00 | 0.00 | 0.97 | 98 | 1011.2 |
| 20260510032757 | 6 | 332 | 0.0 | 0.0 | 0.00 | 0.00 | 0.97 | 98 | 1011.2 |
| 20260510032256 | 6 | 0 | 0.0 | 0.0 | 0.00 | 0.00 | 0.97 | 99 | 1011.2 |
| 20260510031757 | 6 | 0 | 0.0 | 0.0 | 0.00 | 0.00 | 0.97 | 99 | 1011.5 |
| 20260510031257 | 6 | 0 | 0.0 | 0.0 | 0.00 | 0.00 | 0.97 | 99 | 1011.6 |
| 20260510030756 | 6 | 0 | 0.0 | 0.0 | 0.00 | 0.00 | 0.97 | 99 | 1011.6 |
| 20260510030256 | 6 | 0 | 0.0 | 0.0 | 0.00 | 0.00 | 0.97 | 99 | 1011.6 |
| 20260510025756 | 6 | 0 | 0.0 | 0.0 | 0.00 | 0.00 | 0.97 | 99 | 1011.6 |
| 20260510025257 | 6 | 0 | 0.0 | 0.0 | 0.00 | 0.00 | 0.97 | 99 | 1011.8 |
| 20260510024757 | 6 | 0 | 0.0 | 0.0 | 0.00 | 0.00 | 0.97 | 99 | 1011.8 |
| 20260510024256 | 6 | 294 | 0.0 | 1.6 | 0.00 | 0.00 | 0.97 | 99 | 1011.9 |
| 20260510023756 | 6 | 332 | 0.0 | 0.0 | 0.00 | 0.00 | 0.97 | 99 | 1011.8 |
| 20260510023256 | 6 | 351 | 0.0 | 1.6 | 0.00 | 0.00 | 0.97 | 99 | 1011.8 |
| 20260510022756 | 6 | 311 | 1.6 | 1.6 | 0.00 | 0.00 | 0.97 | 99 | 1011.7 |
| 20260510022256 | 6 | 5 | 1.6 | 3.2 | 0.00 | 0.00 | 0.97 | 99 | 1011.7 |
| 20260510021756 | 6 | 0 | 0.0 | 0.0 | 0.00 | 0.00 | 0.97 | 99 | 1011.8 |
| 20260510021256 | 6 | 0 | 0.0 | 0.0 | 0.00 | 0.00 | 0.97 | 99 | 1011.8 |
| 20260510020756 | 6 | 0 | 0.0 | 0.0 | 0.00 | 0.00 | 0.97 | 99 | 1011.9 |
| 20260510020256 | 6 | 0 | 0.0 | 0.0 | 0.00 | 0.00 | 0.97 | 99 | 1012.0 |
| 20260510015757 | 6 | 348 | 0.0 | 1.6 | 0.00 | 0.00 | 0.97 | 98 | 1011.9 |
| 20260510015256 | 6 | 0 | 0.0 | 0.0 | 0.00 | 0.00 | 0.97 | 99 | 1011.8 |
| 20260510014756 | 6 | 0 | 0.0 | 0.0 | 0.00 | 0.00 | 0.97 | 99 | 1011.8 |
| 20260510014257 | 6 | 0 | 0.0 | 0.0 | 0.00 | 0.00 | 0.97 | 98 | 1011.9 |
| 20260510013756 | 6 | 0 | 0.0 | 0.0 | 0.00 | 0.00 | 0.97 | 98 | 1012.0 |
| 20260510013256 | 6 | 0 | 0.0 | 0.0 | 0.00 | 0.00 | 0.97 | 98 | 1012.0 |
| 20260510012756 | 6 | 45 | 1.6 | 1.6 | 0.00 | 0.00 | 0.97 | 98 | 1012.0 |
| 20260510012256 | 6 | 0 | 0.0 | 0.0 | 0.00 | 0.00 | 0.97 | 98 | 1012.1 |
| 20260510011759 | 6 | 0 | 0.0 | 0.0 | 0.00 | 0.00 | 0.97 | 98 | 1012.1 |
| 20260510011256 | 6 | 0 | 0.0 | 0.0 | 0.00 | 0.00 | 0.97 | 98 | 1012.2 |
| 20260510010757 | 6 | 0 | 0.0 | 0.0 | 0.00 | 0.00 | 0.97 | 98 | 1012.1 |
| 20260510010256 | 6 | 0 | 0.0 | 0.0 | 0.00 | 0.00 | 0.97 | 98 | 1012.1 |
| 20260510005756 | 6 | 0 | 0.0 | 0.0 | 0.00 | 0.00 | 0.97 | 98 | 1012.0 |
| 20260510005256 | 6 | 111 | 0.0 | 0.0 | 0.00 | 0.00 | 0.97 | 98 | 1012.0 |
| 20260510004757 | 6 | 0 | 0.0 | 0.0 | 0.00 | 0.00 | 0.97 | 98 | 1012.0 |
| 20260510004257 | 6 | 336 | 1.6 | 3.2 | 0.00 | 0.00 | 0.97 | 98 | 1011.9 |
| 20260510003756 | 6 | 0 | 0.0 | 0.0 | 0.00 | 0.00 | 0.97 | 98 | 1011.8 |
| 20260510003256 | 6 | 0 | 0.0 | 0.0 | 0.00 | 0.00 | 0.97 | 98 | 1011.7 |
| 20260510002756 | 6 | 0 | 0.0 | 0.0 | 0.00 | 0.00 | 0.97 | 98 | 1011.7 |
| 20260510002256 | 6 | 346 | 0.0 | 1.6 | 0.00 | 0.00 | 0.97 | 98 | 1011.7 |
| 20260510001756 | 6 | 0 | 0.0 | 0.0 | 0.00 | 0.00 | 0.97 | 98 | 1011.7 |
| 20260510001256 | 6 | 0 | 0.0 | 0.0 | 0.00 | 0.00 | 0.97 | 98 | 1011.7 |
| 20260510000758 | 7 | 0 | 0.0 | 0.0 | 0.00 | 0.00 | 0.97 | 98 | 1011.5 |
| 20260510000256 | 6 | 0 | 0.0 | 0.0 | 0.00 | 0.00 | 0.97 | 98 | 1011.4 |
| 20260509235756 | 7 | 0 | 0.0 | 0.0 | 0.00 | 0.00 | 0.97 | 97 | 1011.4 |
| 20260509235256 | 7 | 0 | 0.0 | 0.0 | 0.00 | 0.00 | 0.97 | 98 | 1011.3 |
| 20260509234756 | 7 | 0 | 0.0 | 0.0 | 0.00 | 0.00 | 0.97 | 97 | 1011.4 |
| 20260509234257 | 7 | 14 | 0.0 | 0.0 | 0.00 | 0.00 | 0.97 | 97 | 1011.4 |
| 20260509233757 | 7 | 0 | 0.0 | 0.0 | 0.00 | 0.00 | 0.97 | 97 | 1011.4 |
| 20260509233256 | 7 | 357 | 1.6 | 1.6 | 0.00 | 0.00 | 0.97 | 97 | 1011.3 |
| 20260509232757 | 7 | 0 | 0.0 | 0.0 | 0.00 | 0.00 | 0.97 | 97 | 1011.3 |
| 20260509232256 | 7 | 0 | 0.0 | 0.0 | 0.00 | 0.00 | 0.97 | 97 | 1011.4 |
| 20260509231756 | 7 | 0 | 0.0 | 0.0 | 0.00 | 0.00 | 0.97 | 97 | 1011.3 |
| 20260509231256 | 7 | 32 | 0.0 | 1.6 | 0.00 | 0.00 | 0.97 | 97 | 1011.3 |
| 20260509230756 | 7 | 0 | 0.0 | 0.0 | 0.00 | 0.00 | 0.97 | 97 | 1011.4 |
| 20260509230256 | 7 | 43 | 0.0 | 1.6 | 0.00 | 0.00 | 0.97 | 97 | 1011.3 |
| 20260509225757 | 7 | 0 | 0.0 | 0.0 | 0.00 | 0.00 | 1.02 | 97 | 1011.4 |
| 20260509225257 | 7 | 351 | 0.0 | 1.6 | 0.00 | 0.00 | 1.02 | 97 | 1011.4 |
| 20260509224756 | 7 | 0 | 0.0 | 1.6 | 0.00 | 0.00 | 1.02 | 96 | 1011.3 |
| 20260509224257 | 7 | 0 | 0.0 | 0.0 | 0.00 | 0.00 | 1.02 | 97 | 1011.2 |
| 20260509223756 | 7 | 2 | 1.6 | 3.2 | 0.00 | 0.00 | 1.02 | 96 | 1011.3 |
| 20260509223256 | 7 | 5 | 0.0 | 0.0 | 0.00 | 0.00 | 1.02 | 97 | 1011.3 |
| 20260509222756 | 7 | 328 | 1.6 | 1.6 | 0.03 | 0.00 | 1.02 | 97 | 1011.4 |
| 20260509222256 | 7 | 0 | 0.0 | 0.0 | 0.03 | 0.00 | 0.89 | 96 | 1011.4 |
| 20260509221756 | 7 | 0 | 0.0 | 0.0 | 0.03 | 0.00 | 0.89 | 97 | 1011.5 |
| 20260509221257 | 7 | 33 | 0.0 | 0.0 | 0.03 | 0.00 | 0.89 | 96 | 1011.6 |
| 20260509220756 | 7 | 0 | 0.0 | 0.0 | 0.03 | 0.00 | 0.89 | 97 | 1011.6 |
| 20260509220256 | 7 | 157 | 0.0 | 1.6 | 0.05 | 0.00 | 0.89 | 97 | 1011.6 |
| 20260509215800 | 7 | 261 | 3.2 | 3.2 | 0.05 | 0.00 | 0.89 | 97 | 1011.5 |
| 20260509215256 | 7 | 265 | 1.6 | 3.2 | 0.05 | 0.00 | 0.89 | 97 | 1011.5 |
| 20260509214756 | 7 | 310 | 0.0 | 1.6 | 0.05 | 0.00 | 0.89 | 96 | 1011.5 |
| 20260509214257 | 7 | 0 | 0.0 | 0.0 | 0.08 | 0.00 | 0.89 | 97 | 1011.6 |
| 20260509213757 | 7 | 231 | 3.2 | 3.2 | 0.08 | 0.00 | 0.89 | 97 | 1011.7 |
| 20260509213257 | 7 | 68 | 0.0 | 0.0 | 0.08 | 0.00 | 0.89 | 97 | 1011.7 |
| 20260509212756 | 7 | 297 | 0.0 | 0.0 | 0.08 | 0.00 | 0.89 | 96 | 1011.8 |
| 20260509212256 | 7 | 303 | 0.0 | 0.0 | 0.08 | 0.00 | 0.84 | 96 | 1011.8 |
| 20260509211757 | 7 | 0 | 0.0 | 0.0 | 0.08 | 0.00 | 0.81 | 96 | 1011.8 |
| 20260509211256 | 7 | 21 | 1.6 | 1.6 | 0.08 | 0.00 | 0.81 | 97 | 1011.7 |
| 20260509210756 | 7 | 279 | 1.6 | 3.2 | 0.10 | 0.00 | 0.81 | 97 | 1011.8 |
| 20260509210256 | 7 | 284 | 3.2 | 4.8 | 0.10 | 0.00 | 0.81 | 97 | 1011.8 |
| 20260509205756 | 7 | 224 | 1.6 | 3.2 | 0.13 | 0.00 | 0.81 | 96 | 1011.6 |
| 20260509205256 | 7 | 168 | 1.6 | 4.8 | 0.13 | 0.00 | 0.79 | 97 | 1011.7 |
| 20260509204756 | 7 | 279 | 3.2 | 3.2 | 0.13 | 0.00 | 0.79 | 96 | 1012.0 |
| 20260509204259 | 7 | 271 | 3.2 | 3.2 | 0.13 | 0.00 | 0.79 | 97 | 1011.9 |
| 20260509203757 | 7 | 284 | 1.6 | 1.6 | 0.13 | 0.00 | 0.79 | 96 | 1011.9 |
| 20260509203257 | 7 | 289 | 0.0 | 1.6 | 0.15 | 0.00 | 0.76 | 96 | 1011.9 |
| 20260509202800 | 7 | 233 | 0.0 | 0.0 | 0.15 | 0.00 | 0.76 | 95 | 1011.9 |
| 20260509202256 | 7 | 262 | 0.0 | 0.0 | 0.15 | 0.00 | 0.76 | 96 | 1011.9 |
| 20260509201756 | 7 | 82 | 0.0 | 1.6 | 0.15 | 0.00 | 0.74 | 96 | 1012.0 |
| 20260509201256 | 7 | 269 | 0.0 | 1.6 | 0.15 | 0.00 | 0.74 | 95 | 1012.1 |
| 20260509200756 | 7 | 320 | 0.0 | 1.6 | 0.15 | 0.00 | 0.71 | 95 | 1012.2 |
| 20260509200258 | 7 | 302 | 1.6 | 3.2 | 0.15 | 0.00 | 0.71 | 95 | 1012.1 |
| 20260509195756 | 7 | 160 | 3.2 | 3.2 | 0.15 | 0.00 | 0.69 | 95 | 1012.2 |
| 20260509195257 | 7 | 293 | 1.6 | 1.6 | 0.15 | 0.00 | 0.69 | 95 | 1012.1 |
| 20260509194756 | 7 | 292 | 3.2 | 6.4 | 0.15 | 0.00 | 0.69 | 95 | 1012.0 |
| 20260509194259 | 7 | 302 | 1.6 | 3.2 | 0.15 | 0.00 | 0.66 | 94 | 1012.1 |